Flag for Germany Weather past 2 weeks in Bocholt, North Rhine-Westphalia, Germany

Now
57 °F

Sunny.


Feels Like: 56 °F
Forecast: 37 / 57 °F
Wind: 7 mph from North

Location: Niederrhein

Current Time: Apr 18, 2015 at 5:20:39 PM

Latest Report: Apr 18, 2015 at 4:50 PM


Visibility: 10 mi

Pressure: 30.30 "Hg

Humidity: 39%

Dew point: 32 °F

Location of BocholtLocation

Historic Weather in Bocholt — Graph

°F

Bocholt temperature yesterday

Maximum temperature yesterday: 57 °F (at 3:20 PM)
Minimum temperature yesterday: 43 °F (at 4:50 AM)
Average temperature yesterday: 49 °F

Past Weeks' High & Low Weather Summary

 TemperatureHumidityPressure
High75 °F (Apr 15, 3:20 PM)100% (Apr 5, 7:50 AM)30.63 "Hg (Apr 5, 7:50 AM)
Low30 °F (Apr 7, 5:50 AM)16% (Apr 10, 5:20 PM)29.95 "Hg (Apr 11, 4:50 AM)
Average51 °F64%30.25 "Hg
* Reported Apr 3 3:20 PM — Apr 18 3:50 PM, Bocholt, Weather by CustomWeather, © 2015

Note: Actual official high and low records may vary slightly from our data, if they occured in-between our weather recording intervals... More about our weather records

Advertising

Bocholt weather history for previous 24 hours

 ConditionsComfort  
Time TempWeatherWind HumidityBarometerVisibility
3:50 PM
Sat, Apr 18
57 °FPassing clouds.7 mph39%30.33 "HgN/A
3:20 PM57 °FPassing clouds.8 mph41%30.33 "HgN/A
2:50 PM57 °FSunny.9 mph36%30.33 "Hg10 mi
2:20 PM55 °FSunny.8 mph38%30.33 "Hg10 mi
1:50 PM57 °FPassing clouds.10 mph41%30.36 "HgN/A
1:20 PM54 °FSunny.9 mph44%30.36 "Hg10 mi
12:50 PM54 °FSunny.8 mph44%30.36 "Hg10 mi
12:20 PM52 °FPassing clouds.9 mph50%30.36 "HgN/A
11:50 AM52 °FPassing clouds.8 mph54%30.36 "HgN/A
11:20 AM50 °FPassing clouds.8 mph58%30.36 "HgN/A
10:50 AM50 °FPassing clouds.7 mph58%30.36 "HgN/A
10:20 AM50 °FSunny.5 mph62%30.36 "Hg10 mi
9:50 AM46 °FSunny.5 mph66%30.36 "Hg10 mi
9:20 AM45 °FPassing clouds.5 mph76%30.36 "HgN/A
8:50 AM43 °FPassing clouds.6 mph81%30.36 "HgN/A
8:20 AM41 °FPassing clouds.5 mph81%30.33 "HgN/A
7:50 AM39 °FPassing clouds.5 mph87%30.33 "HgN/A
7:20 AM37 °FClear.3 mph87%30.33 "Hg10 mi
6:50 AM34 °FClear.1 mph93%30.30 "Hg10 mi
6:20 AM34 °FClear.1 mph93%30.30 "Hg10 mi
5:50 AM34 °FClear.No wind93%30.30 "Hg10 mi
5:20 AM36 °FClear.No wind93%30.30 "Hg10 mi
4:50 AM37 °FClear.No wind87%30.30 "Hg10 mi
11:50 PM
Fri, Apr 17
45 °FPassing clouds.5 mph66%30.24 "HgN/A
11:20 PM45 °FPassing clouds.6 mph66%30.21 "HgN/A
10:50 PM46 °FPassing clouds.5 mph62%30.21 "HgN/A
10:20 PM46 °FSunny.2 mph57%30.21 "Hg10 mi
9:50 PM46 °FPassing clouds.5 mph57%30.18 "HgN/A
9:20 PM48 °FPassing clouds.6 mph54%30.18 "HgN/A
8:50 PM50 °FPassing clouds.5 mph50%30.15 "HgN/A
8:20 PM52 °FPassing clouds.8 mph47%30.15 "HgN/A
7:50 PM54 °FPassing clouds.7 mph44%30.12 "HgN/A
7:20 PM54 °FPassing clouds.8 mph44%30.12 "HgN/A
6:50 PM55 °FPassing clouds.9 mph44%30.09 "HgN/A
6:20 PM55 °FPassing clouds.7 mph44%30.09 "HgN/A
5:50 PM55 °FSunny.7 mph44%30.09 "Hg10 mi
5:20 PM55 °FPassing clouds.7 mph44%30.09 "HgN/A
Weather by CustomWeather, © 2015

See weather overviewHow to use our weather pages